Torna al catalogo

SIRIUS 1

AttivoComunicazioniMEO
NORAD 26390·PAYLOAD·🇺🇸 United States

Lanciato Jun 30, 2000 da Baikonur Cosmodrome

Loading…

Prossimi Passaggi (prossime 24 ore)

TLE

AggiornatoSource: Space-Track

Epoca: Sep 14, 2026, 09:58 UTC

1 26390U 00035A   26257.41547481  .00000002  00000-0  00000-0 0  9996
2 26390  59.3845 158.1265 0002345   7.8074 174.0124  1.57877252 73276

Traccia SIRIUS 1 in tempo reale con AllMySat

Download on the App Store